Simultaneous Nadir Overpasses (SNOs) Predictions

Prediction of SNOs between METOP-A and NPP Satellite Orbit:

Table of predicted SNOs for the next 14.0 days since TLE Epoch: 12/30/2012
Index Date (METOP-A) Time (METOP-A) Lat,Lon (METOP-A) SZA (METOP-A ) Date (NPP) Time (NPP) Lat,Lon (NPP) SZA (NPP ) Distance(km) Time Diff (sec)
1 12/30/2012 15:02:53 81.31,-114.77 109.85 12/30/2012 15:02:52 81.31,-114.76 109.85 0.07 1
2 12/30/2012 15:53:38 -81.31, 52.42 70.14 12/30/2012 15:53:37 -81.31, 52.43 70.14 0.07 1
3 12/30/2012 16:44:23 81.31,-140.19 109.85 12/30/2012 16:44:22 81.31,-140.18 109.85 0.07 1
4 12/30/2012 17:35:08 -81.31, 27.00 70.14 12/30/2012 17:35:07 -81.31, 27.01 70.14 0.07 1
5 12/30/2012 18:25:53 81.31,-165.61 109.85 12/30/2012 18:25:52 81.31,-165.61 109.85 0.07 1
6 12/30/2012 19:16:38 -81.31, 1.58 70.14 12/30/2012 19:16:37 -81.31, 1.59 70.14 0.07 1
7 12/30/2012 20:07:23 81.31, 168.97 109.86 12/30/2012 20:07:22 81.31, 168.97 109.86 0.07 1
8 12/30/2012 20:58:08 -81.31, -23.84 70.13 12/30/2012 20:58:07 -81.31, -23.83 70.13 0.07 1
9 12/30/2012 21:48:53 81.31, 143.55 109.86 12/30/2012 21:48:52 81.31, 143.55 109.86 0.07 1
10 12/30/2012 22:39:38 -81.31, -49.26 70.13 12/30/2012 22:39:37 -81.31, -49.26 70.13 0.07 1
11 12/30/2012 23:30:23 81.31, 118.12 109.86 12/30/2012 23:30:22 81.31, 118.13 109.86 0.07 1
12 12/31/2012 00:21:08 -81.31, -74.68 70.13 12/31/2012 00:21:07 -81.31, -74.68 70.13 0.07 1
13 12/31/2012 01:11:53 81.31, 92.70 109.86 12/31/2012 01:11:52 81.31, 92.71 109.86 0.07 1
14 12/31/2012 02:02:37 -81.31, -99.71 70.18 12/31/2012 02:02:36 -81.31, -99.71 70.18 0.07 1
15 12/31/2012 02:53:23 81.31, 67.28 109.87 12/31/2012 02:53:22 81.31, 67.28 109.87 0.07 1
16 12/31/2012 03:44:07 -81.31,-125.13 70.18 12/31/2012 03:44:06 -81.31,-125.13 70.18 0.07 1
17 12/31/2012 04:34:52 81.31, 42.25 109.82 12/31/2012 04:34:51 81.31, 42.26 109.82 0.07 1
18 12/31/2012 05:25:37 -81.31,-150.55 70.18 12/31/2012 05:25:36 -81.31,-150.55 70.18 0.07 1
19 12/31/2012 06:16:22 81.31, 16.83 109.82 12/31/2012 06:16:21 81.31, 16.83 109.82 0.07 1
20 12/31/2012 07:07:07 -81.31,-175.97 70.17 12/31/2012 07:07:06 <
